User: anonymous   Login
Location: Unspecified
(0.0000°N, 0.0000°E)
Time: 10:28:51
(UTC+01:00)
Language:

Resurs 01 Rocket - Orbit

View from above orbital plane
View from above orbital plane
View from above satellite
View from above satellite

Ground track
Ground track

The orbit data is extracted from the following two-line orbital elements,

1 23343U 94074B   14297.69247426  .00000710  00000-0  11029-3 0  1527
2 23343 098.2260 303.9218 0005680 289.4081 201.9925 14.76240624 74208
Epoch (UTC): 24 October 2014 16:37:09
Eccentricity: 0.0005680
inclination: 98.2260°
perigee height: 637 km
apogee height: 645 km
right ascension of ascending node: 303.9218°
argument of perigee: 289.4081°
revolutions per day: 14.76240624
mean anomaly at epoch: 201.9925°
orbit number at epoch: 7420

The dashed part of the orbit path shows where the satellite is in the earth's shadow,  

DLR